Hourly Data Report for September 25, 2017

All times are specified in Local Standard Time (LST). Add 1 hour to adjust for Daylight Saving Time where and when it is observed.

EDMUNDSTON
NEW BRUNSWICK

47°25'00.000" N
68°19'28.040" W
154.20 m
8101303
71590
ERM

Download Data

Hourly Data (September 2017)
Hourly Data Report for September 25, 2017
Temp Definition
°C
Dew Point Temp Definition
°C
Rel Hum Definition
%
Wind Dir Definition
10's deg

Wind Spd Definition
km/h
Visibility Definition
km
Stn Press Definition
kPa
Hmdx Definition


Wind Chill Definition


Weather Definition


TIME
00:00 14.1 12.9 92 30 1   99.98     LegendNANA
01:00 13.5 12.2 92 32 4   99.96     LegendNANA
02:00 12.2 11.1 93   0   100.02     LegendNANA
03:00 12.8 12.0 95   0   100.02     LegendNANA
04:00 12.9 12.0 94   0   99.98     LegendNANA
05:00 12.6 11.7 94 32 1   99.97     LegendNANA
06:00 12.7 11.9 95   0   99.99     LegendNANA
07:00 12.5 11.7 95 35 5   100.00     LegendNANA
08:00 14.8 13.2 90 12 6   100.01     LegendNANA
09:00 16.6 13.8 84 15 7   99.98     LegendNANA
10:00 20.4 15.1 71 11 7   99.93     LegendNANA
11:00 21.9 15.5 67 13 7   99.88 26   LegendNANA
12:00 25.1 17.5 63 13 6   99.78 31   LegendNANA
13:00 27.7 18.4 57 17 8   99.72 34   LegendNANA
14:00 29.9 19.0 52 23 5   99.62 37   LegendNANA
15:00 31.1 19.2 49 20 4   99.54 38   LegendNANA
16:00 31.5 18.4 46 18 10   99.48 38   LegendNANA
17:00 31.4 16.0 40 23 6   99.45 36   LegendNANA
18:00 28.7 16.4 47 23 2   99.46 34   LegendNANA
19:00 22.7 16.6 68 0 1   99.47 28   LegendNANA
20:00 24.7 16.3 59 31 4   99.47 30   LegendNANA
21:00 25.7 17.3 60 31 5   99.46 31   LegendNANA
22:00 22.2 17.2 74 36 3   99.46 28   LegendNANA
23:00 18.5 16.1 86 0 1   99.43     LegendNANA

Notes on Data Quality.

Legend

  • E = Estimated
  • M = Missing
  • NA = Not Available
  • ‡ = Partner data that is not subject to review by the National Climate Archives
Date modified: